Find Yaogan 35 05 zu 03 xing

NORAD ID: 53763 Int'l Des: 2022-109 Owner: ZZB Country: CN Constellation: yaogan operational
LEOCIRCULAR

現在のビュー

3D地球を読み込み中...

Yaogan 35 05 zu 03 xingについて

説明を読み込み中...

次回通過

Passes for default location (London). Set your location on the main map for personalized predictions.

高度履歴

Loading altitude history...

軌道要素

1 53763U 22109D 26151.32612760 .00010320 00000-0 42612-3 0 9994
2 53763 34.9914 103.1021 0001818 132.5198 227.5670 15.23252910207807
Epoch: May 31, 2026 • Age: 14 hours

現在のステータス

高度 503.0 km
速度 7.61 km/s
衛星直下点 -29.09°S, 120.64°E
打ち上げ日 Sep 6, 2022
運用期間 3.7 years
タイプ military

技術仕様

分類 Payload
質量 300.00 kg
乾燥質量 300.00 kg
総質量 300.00 kg
長さ 2.50 m
直径 2.50 m
スパン 5.00 m
形状 Box + 2 Pan
製造者 DFHZ
フェーズステータス In Orbit
所有者/国 ZZB/CN

Most Searched